When you browse on this site, cookies collect data to enhance your experience and personalize the content and advertising you see.
Visit our Privacy Policy to learn more. By continuing to use the site, you agree to this use of cookies and data.
  • In Switzerland
  • List of Countries
  • For 7 days
  • Water Temperature
  • Satellite Maps
  • Weather Map
  • Weather Widgets
  • user-avatar
    Login

    Hourly Weather Pirmasens

    Today, 27 May, Monday

    Time Temperature Precipitation Wind Pressure Humidity
    00:00 +12°C° 0 mm 2 mps 726 mmHg 94%
    01:00 +10°C° 0 mm 2 mps 726 mmHg 95%
    02:00 +10°C° 0 mm 2 mps 726 mmHg 95%
    03:00 +10°C° 0 mm 2 mps 725 mmHg 96%
    04:00 +11°C° 0 mm 1 mps 725 mmHg 96%
    05:00 +12°C° 0 mm 2 mps 725 mmHg 93%
    06:00 +12°C° 0 mm 2 mps 725 mmHg 91%
    07:00 +13°C° 0 mm 2 mps 725 mmHg 88%
    08:00 +14°C° 0 mm 3 mps 725 mmHg 83%
    09:00 +16°C° 0 mm 3 mps 725 mmHg 78%
    10:00 +17°C° 0 mm 3 mps 725 mmHg 74%
    11:00 +17°C° 0.2 mm 4 mps 725 mmHg 77%
    12:00 +15°C° 0.2 mm 4 mps 724 mmHg 81%
    13:00 +15°C° 0.2 mm 4 mps 724 mmHg 85%
    14:00 +16°C° 0 mm 3 mps 724 mmHg 83%
    15:00 +16°C° 0 mm 3 mps 724 mmHg 80%
    16:00 +17°C° 0 mm 3 mps 723 mmHg 77%
    17:00 +17°C° 0 mm 3 mps 723 mmHg 80%
    18:00 +16°C° 0 mm 2 mps 723 mmHg 82%
    19:00 +16°C° 0 mm 2 mps 723 mmHg 84%
    20:00 +15°C° 0.1 mm 2 mps 723 mmHg 88%
    21:00 +14°C° 0.1 mm 2 mps 723 mmHg 91%
    22:00 +13°C° 0.1 mm 2 mps 723 mmHg 94%
    23:00 +12°C° 0 mm 1 mps 723 mmHg 95%

    Tomorrow, 28 May, Tuesday

    Time Temperature Precipitation Wind Pressure Humidity
    00:00 +12°C° 0 mm 1 mps 723 mmHg 95%
    01:00 +11°C° 0 mm 1 mps 723 mmHg 96%
    02:00 +11°C° 0.2 mm 1 mps 723 mmHg 96%
    03:00 +11°C° 0.2 mm 1 mps 723 mmHg 96%
    04:00 +10°C° 0.2 mm 2 mps 723 mmHg 96%
    05:00 +10°C° 0.3 mm 2 mps 723 mmHg 95%
    06:00 +10°C° 0.3 mm 3 mps 723 mmHg 94%
    07:00 +10°C° 0.3 mm 4 mps 723 mmHg 93%
    08:00 +11°C° 0 mm 4 mps 723 mmHg 88%
    09:00 +11°C° 0 mm 4 mps 723 mmHg 82%
    10:00 +12°C° 0 mm 5 mps 724 mmHg 77%
    11:00 +13°C° 0.3 mm 4 mps 724 mmHg 75%
    12:00 +14°C° 0.3 mm 4 mps 724 mmHg 73%
    13:00 +15°C° 0.3 mm 4 mps 724 mmHg 71%
    14:00 +15°C° 0.5 mm 4 mps 724 mmHg 71%
    15:00 +15°C° 0.5 mm 4 mps 724 mmHg 72%
    16:00 +15°C° 0.5 mm 4 mps 724 mmHg 73%
    17:00 +14°C° 0.5 mm 3 mps 724 mmHg 78%
    18:00 +13°C° 0.5 mm 3 mps 724 mmHg 84%
    19:00 +13°C° 0.5 mm 2 mps 725 mmHg 89%
    20:00 +12°C° 0.1 mm 2 mps 725 mmHg 90%
    21:00 +9°C° 0.1 mm 2 mps 726 mmHg 92%
    22:00 +9°C° 0.1 mm 1 mps 726 mmHg 93%
    23:00 +8°C° 0 mm 1 mps 726 mmHg 94%

    Day after tomorrow, 29 May, Wednesday

    Time Temperature Precipitation Wind Pressure Humidity
    00:00 +8°C° 0 mm 1 mps 727 mmHg 94%
    01:00 +7°C° 0 mm 1 mps 727 mmHg 95%
    02:00 +7°C° 0 mm 1 mps 727 mmHg 95%
    03:00 +7°C° 0 mm 1 mps 728 mmHg 96%
    04:00 +7°C° 0 mm 1 mps 728 mmHg 97%
    05:00 +8°C° 0 mm 1 mps 729 mmHg 95%
    06:00 +9°C° 0 mm 1 mps 729 mmHg 94%
    07:00 +9°C° 0 mm 0 mps 730 mmHg 93%
    08:00 +11°C° 0 mm 1 mps 730 mmHg 89%
    09:00 +12°C° 0 mm 1 mps 730 mmHg 84%
    10:00 +14°C° 0 mm 1 mps 730 mmHg 80%
    11:00 +14°C° 0.1 mm 1 mps 730 mmHg 77%
    12:00 +15°C° 0.1 mm 2 mps 730 mmHg 74%
    13:00 +14°C° 0.1 mm 3 mps 730 mmHg 71%
    14:00 +16°C° 0 mm 3 mps 730 mmHg 70%
    15:00 +15°C° 0 mm 4 mps 730 mmHg 68%
    16:00 +17°C° 0 mm 4 mps 730 mmHg 67%
    17:00 +15°C° 0 mm 4 mps 730 mmHg 70%
    18:00 +16°C° 0 mm 3 mps 730 mmHg 74%
    19:00 +14°C° 0 mm 3 mps 730 mmHg 77%
    20:00 +13°C° 0 mm 3 mps 731 mmHg 80%
    21:00 +12°C° 0 mm 3 mps 731 mmHg 83%
    22:00 +11°C° 0 mm 3 mps 731 mmHg 86%
    23:00 +11°C° 0.1 mm 3 mps 731 mmHg 88%

    30 May, Thursday

    Time Temperature Precipitation Wind Pressure Humidity
    00:00 +11°C° 0.1 mm 3 mps 731 mmHg 89%
    01:00 +11°C° 0.1 mm 3 mps 731 mmHg 90%
    02:00 +11°C° 0.3 mm 3 mps 731 mmHg 93%
    03:00 +10°C° 0.3 mm 3 mps 731 mmHg 95%
    04:00 +10°C° 0.3 mm 3 mps 731 mmHg 97%
    05:00 +11°C° 0.9 mm 3 mps 731 mmHg 97%
    06:00 +11°C° 0.9 mm 4 mps 731 mmHg 97%
    07:00 +12°C° 0.9 mm 4 mps 731 mmHg 97%
    08:00 +12°C° 0.9 mm 4 mps 732 mmHg 97%
    09:00 +12°C° 0.9 mm 4 mps 732 mmHg 97%
    10:00 +12°C° 0.9 mm 4 mps 732 mmHg 97%
    11:00 +13°C° 0.1 mm 4 mps 732 mmHg 96%
    12:00 +13°C° 0.1 mm 4 mps 733 mmHg 96%
    13:00 +13°C° 0.1 mm 4 mps 733 mmHg 95%
    14:00 +14°C° 0.1 mm 3 mps 733 mmHg 94%
    15:00 +14°C° 0.1 mm 3 mps 733 mmHg 92%
    16:00 +16°C° 0.1 mm 3 mps 733 mmHg 90%
    17:00 +16°C° 0.2 mm 3 mps 733 mmHg 91%
    18:00 +14°C° 0.2 mm 3 mps 733 mmHg 93%
    19:00 +14°C° 0.2 mm 3 mps 733 mmHg 94%
    20:00 +14°C° 0 mm 3 mps 733 mmHg 95%
    21:00 +13°C° 0 mm 3 mps 733 mmHg 96%
    22:00 +12°C° 0 mm 3 mps 733 mmHg 97%
    23:00 +12°C° 0 mm 3 mps 733 mmHg 97%

    31 May, Friday

    Time Temperature Precipitation Wind Pressure Humidity
    00:00 +12°C° 0 mm 3 mps 733 mmHg 97%
    01:00 +12°C° 0 mm 3 mps 733 mmHg 97%
    02:00 +12°C° 0.1 mm 3 mps 733 mmHg 97%
    03:00 +12°C° 0.1 mm 4 mps 733 mmHg 97%
    04:00 +12°C° 0.1 mm 4 mps 733 mmHg 97%
    05:00 +12°C° 0.1 mm 4 mps 733 mmHg 97%
    06:00 +12°C° 0.1 mm 4 mps 733 mmHg 96%
    07:00 +12°C° 0.1 mm 4 mps 733 mmHg 96%
    08:00 +12°C° 0.3 mm 4 mps 733 mmHg 96%
    09:00 +13°C° 0.3 mm 4 mps 733 mmHg 96%
    10:00 +13°C° 0.3 mm 4 mps 733 mmHg 95%
    11:00 +14°C° 0.1 mm 4 mps 734 mmHg 89%
    12:00 +17°C° 0.1 mm 4 mps 734 mmHg 83%
    13:00 +17°C° 0.1 mm 5 mps 734 mmHg 76%
    14:00 +18°C° 0.5 mm 4 mps 734 mmHg 77%
    15:00 +18°C° 0.5 mm 4 mps 734 mmHg 78%
    16:00 +18°C° 0.5 mm 4 mps 735 mmHg 79%
    17:00 +17°C° 0.3 mm 3 mps 735 mmHg 81%
    18:00 +16°C° 0.3 mm 3 mps 735 mmHg 82%
    19:00 +16°C° 0.3 mm 3 mps 735 mmHg 84%
    20:00 +13°C° 0 mm 2 mps 736 mmHg 87%
    21:00 +10°C° 0 mm 2 mps 736 mmHg 90%
    22:00 +8°C° 0 mm 2 mps 736 mmHg 93%
    23:00 +8°C° 0 mm 2 mps 737 mmHg 94%

    1 June, Saturday

    Time Temperature Precipitation Wind Pressure Humidity
    00:00 +7°C° 0 mm 2 mps 737 mmHg 94%
    01:00 +7°C° 0 mm 2 mps 737 mmHg 95%
    02:00 +6°C° 0 mm 2 mps 737 mmHg 95%
    03:00 +6°C° 0 mm 2 mps 737 mmHg 95%
    04:00 +6°C° 0 mm 2 mps 737 mmHg 96%
    05:00 +7°C° 0 mm 2 mps 737 mmHg 92%
    06:00 +8°C° 0 mm 3 mps 737 mmHg 89%
    07:00 +9°C° 0 mm 3 mps 738 mmHg 86%
    08:00 +11°C° 0 mm 3 mps 738 mmHg 78%
    09:00 +13°C° 0 mm 3 mps 738 mmHg 70%
    10:00 +14°C° 0 mm 3 mps 738 mmHg 63%
    11:00 +17°C° 0 mm 3 mps 738 mmHg 58%
    12:00 +18°C° 0 mm 3 mps 737 mmHg 53%
    13:00 +19°C° 0 mm 3 mps 737 mmHg 49%
    14:00 +19°C° 0 mm 3 mps 737 mmHg 49%
    15:00 +19°C° 0 mm 3 mps 737 mmHg 49%
    16:00 +19°C° 0 mm 3 mps 736 mmHg 49%
    17:00 +19°C° 0 mm 2 mps 736 mmHg 56%
    18:00 +18°C° 0 mm 2 mps 736 mmHg 62%
    19:00 +17°C° 0 mm 2 mps 736 mmHg 68%
    20:00 +15°C° 0 mm 1 mps 736 mmHg 70%
    21:00 +13°C° 0 mm 1 mps 736 mmHg 71%
    22:00 +11°C° 0 mm 1 mps 736 mmHg 73%
    23:00 +11°C° 0 mm 1 mps 736 mmHg 76%
    Show more